Terminal Aerodrome Forecast
Issued by NWS

Home | Current Version | Previous Version | Text Only | Print | Product List | Glossary On
Versions: 1 2 3 4 5 6 7 8 9 10 11 12 13 14 15 16 17 18 19 20 21 22 23 24 25 26 27 28 29 30 31 32 33 34 35 36 37 38 39 40 41 42 43 44 45 46 47 48 49
000
FTUS45 KCYS 221742 CCA
TAFRWL
TAF COR
KRWL 221742Z 2218/2318 29019G27KT P6SM VCSH FEW030 OVC070
      TEMPO 2218/2222 1SM -SHSN BKN035
     FM230000 31018G28KT 3SM -SN BKN015 OVC025=

USA.gov is the U.S. government's official web portal to all federal, state and local government web resources and services.